FW5863 Weather Reports


time (UTC)temp
C
wind
direction
speed
KPH
gust
KPH
rain 1hr
cm
rain 24hr
cm
rain mn
cm
humidity
%
barometer
mb
20260505171502 26 216 20.9 53.1 0.00 0.10 0.10 41 1009.1
20260505171001 25 236 17.7 29.0 0.00 0.10 0.10 47 1009.0
20260505170501 25 246 17.7 33.8 0.00 0.10 0.10 44 1009.1
20260505170006 25 233 17.7 30.6 0.00 0.10 0.10 47 1009.1
20260505165501 25 259 16.1 29.0 0.00 0.10 0.10 47 1009.2
20260505165001 25 234 17.7 32.2 0.00 0.10 0.10 49 1009.4
20260505164502 25 260 16.1 32.2 0.00 0.10 0.10 48 1009.4
20260505164001 25 250 14.5 30.6 0.00 0.10 0.10 47 1009.5
20260505163501 25 223 14.5 29.0 0.00 0.10 0.10 52 1009.6
20260505163002 25 214 16.1 29.0 0.00 0.10 0.10 50 1009.6
20260505162501 24 217 16.1 30.6 0.00 0.10 0.10 52 1009.7
20260505162001 24 257 17.7 30.6 0.00 0.10 0.10 51 1009.8
20260505161001 24 279 16.1 32.2 0.00 0.10 0.10 51 1009.7
20260505160501 23 232 19.3 30.6 0.00 0.10 0.10 54 1009.8
20260505153003 23 218 12.9 25.7 0.00 0.10 0.10 55 1010.2
20260505152501 23 217 12.9 24.1 0.00 0.10 0.10 59 1010.1
20260505152001 23 256 11.3 25.7 0.00 0.10 0.10 57 1010.2
20260505151502 22 255 12.9 25.7 0.00 0.10 0.10 57 1010.2
20260505151001 22 250 12.9 22.5 0.00 0.10 0.10 57 1010.3
20260505150501 22 257 12.9 25.7 0.00 0.10 0.10 57 1010.4
20260505125001 17 50 8.0 19.3 0.00 0.10 0.10 74 1011.1
20260505124502 16 50 8.0 17.7 0.00 0.10 0.10 75 1011.0
20260505124001 16 50 9.7 16.1 0.00 0.10 0.10 75 1011.0
20260505123501 16 50 6.4 16.1 0.00 0.10 0.10 77 1010.9
20260505123002 15 222 1.6 12.9 0.00 0.10 0.10 81 1010.9
20260505122501 15 131 1.6 6.4 0.00 0.10 0.10 86 1010.8
20260505122001 15 130 0.0 6.4 0.00 0.10 0.10 87 1010.9
20260505121502 14 50 0.0 3.2 0.00 0.10 0.10 88 1010.8
20260505121001 14 50 0.0 3.2 0.00 0.10 0.10 90 1010.7
20260505120501 13 50 0.0 3.2 0.00 0.10 0.10 91 1010.8
20260505115001 12 50 1.6 4.8 0.00 0.10 0.10 93 1010.9
20260505114502 12 50 0.0 4.8 0.00 0.10 0.10 95 1010.9
20260505113501 12 50 0.0 0.0 0.00 0.10 0.10 95 1010.7
20260505113002 11 50 0.0 0.0 0.00 0.10 0.10 96 1010.6
20260505112501 11 50 0.0 0.0 0.00 0.10 0.10 96 1010.6
20260505112001 11 50 0.0 0.0 0.00 0.10 0.10 95 1010.7
20260505111502 10 50 0.0 0.0 0.00 0.10 0.10 95 1010.5
20260505111001 10 50 0.0 0.0 0.00 0.10 0.10 95 1010.5
20260505110501 10 50 0.0 0.0 0.00 0.10 0.10 95 1010.4
20260505102001 9 273 0.0 1.6 0.00 0.10 0.10 92 1010.3
20260505101502 9 273 0.0 0.0 0.00 0.10 0.10 92 1010.3
20260505101001 9 273 0.0 0.0 0.00 0.10 0.10 92 1010.3
20260505100501 10 273 0.0 0.0 0.00 0.10 0.10 92 1010.2
20260505095501 10 273 1.6 3.2 0.00 0.10 0.10 92 1010.1
20260505095001 10 273 1.6 3.2 0.00 0.10 0.10 92 1010.2
20260505094001 10 288 0.0 1.6 0.00 0.10 0.10 91 1010.1
20260505092501 10 288 0.0 1.6 0.00 0.10 0.10 91 1009.9
20260505092001 10 288 1.6 4.8 0.00 0.10 0.10 91 1009.9
20260505091502 10 288 1.6 4.8 0.03 0.10 0.10 91 1010.0
20260505091001 10 288 1.6 4.8 0.03 0.10 0.10 90 1009.9
20260505090004 10 334 0.0 3.2 0.10 0.10 0.10 90 1010.0
20260505085503 10 334 1.6 6.4 0.10 0.10 0.10 89 1010.2
20260505085000 10 334 4.8 9.7 0.10 0.10 0.10 90 1010.2
20260505083501 11 336 1.6 6.4 0.10 0.10 0.10 88 1010.2
20260505083002 11 336 1.6 6.4 0.10 0.10 0.10 87 1010.3
20260505082501 11 19 0.0 0.0 0.10 0.10 0.10 86 1010.4
20260505081001 11 21 3.2 6.4 0.08 0.08 0.08 81 1010.0
20260505080501 11 222 3.2 6.4 0.00 0.00 0.00 80 1010.3
20260505080002 11 251 4.8 8.0 0.00 0.00 0.00 79 1010.0
20260505075501 11 292 4.8 8.0 0.00 0.00 0.00 79 1010.1
20260505075001 11 266 6.4 14.5 0.00 0.00 0.00 79 1009.9
20260505074502 11 4 3.2 14.5 0.00 0.00 0.00 79 1009.6
20260505074001 11 333 0.0 0.0 0.00 0.00 0.00 78 1009.5
20260505073501 11 205 0.0 0.0 0.00 0.00 0.00 78 1009.5
20260505073001 11 206 0.0 0.0 0.00 0.00 0.00 78 1009.6
20260505071502 11 261 0.0 0.0 0.00 0.00 0.00 77 1009.7
20260505071001 11 261 0.0 0.0 0.00 0.00 0.00 77 1009.8
20260505070501 11 261 0.0 0.0 0.00 0.00 0.00 76 1009.9
20260505070002 11 261 0.0 0.0 0.00 0.00 0.00 76 1009.7
20260505065501 11 259 0.0 0.0 0.00 0.00 0.00 74 1009.8
20260505065001 11 259 0.0 0.0 0.00 0.00 0.00 73 1009.8
20260505064502 11 259 0.0 0.0 0.00 0.00 0.00 72 1009.8
20260505064001 11 259 0.0 0.0 0.00 0.00 0.00 73 1009.8
20260505063501 11 259 0.0 0.0 0.00 0.00 0.00 73 1009.7
20260505063002 11 259 0.0 0.0 0.00 0.00 0.00 72 1009.8
20260505062501 11 259 0.0 0.0 0.00 0.00 0.00 73 1009.8
20260505062001 11 259 0.0 0.0 0.00 0.00 0.00 74 1009.9
20260505061502 11 259 0.0 3.2 0.00 0.00 0.00 73 1009.9
20260505061002 12 259 1.6 3.2 0.00 0.00 0.00 72 1009.9
20260505060501 12 259 3.2 4.8 0.00 0.00 0.00 71 1009.9
20260505060001 12 259 3.2 4.8 0.00 0.00 0.00 71 1009.9
20260505055501 12 259 3.2 4.8 0.00 0.00 0.00 70 1009.8
20260505055001 12 258 1.6 4.8 0.00 0.00 0.00 68 1009.8
20260505054001 13 50 0.0 0.0 0.00 0.00 0.00 65 1009.9
20260505053501 14 50 0.0 0.0 0.00 0.00 0.00 63 1009.8
20260505053002 14 50 1.6 3.2 0.00 0.00 0.00 62 1009.9
20260505052501 15 50 1.6 3.2 0.00 0.00 0.00 62 1009.8
20260505052001 15 50 1.6 8.0 0.00 0.00 0.00 61 1009.9
20260505051502 15 50 4.8 8.0 0.00 0.00 0.00 61 1009.8
20260505051001 15 50 4.8 8.0 0.00 0.00 0.00 61 1009.8
20260505050501 15 50 4.8 8.0 0.00 0.00 0.00 61 1009.8
20260505041501 15 50 3.2 8.0 0.00 0.00 0.00 59 1009.7
20260505035501 15 50 1.6 8.0 0.00 0.00 0.00 58 1009.6
20260505034502 15 50 1.6 8.0 0.00 0.00 0.00 57 1009.4
20260505034001 15 50 3.2 8.0 0.00 0.00 0.00 57 1009.4
20260505033500 15 50 4.8 9.7 0.00 0.00 0.00 57 1009.4
20260505033001 16 50 4.8 9.7 0.00 0.00 0.00 57 1009.5
20260505032500 15 50 3.2 9.7 0.00 0.00 0.00 57 1009.6
20260505031501 15 50 3.2 4.8 0.00 0.00 0.00 57 1009.6
20260505031001 16 50 3.2 4.8 0.00 0.00 0.00 56 1009.5
20260505030501 16 50 3.2 8.0 0.00 0.00 0.00 56 1009.5
20260505030001 16 50 3.2 8.0 0.00 0.00 0.00 55 1009.6
20260505025501 16 50 4.8 8.0 0.00 0.00 0.00 55 1009.7
20260505025001 16 50 4.8 9.7 0.00 0.00 0.00 55 1009.7
20260505024501 16 50 3.2 9.7 0.00 0.00 0.00 55 1009.7
20260505024001 16 50 3.2 6.4 0.00 0.00 0.00 55 1009.7
20260505023501 16 50 3.2 6.4 0.00 0.00 0.00 55 1009.7
20260505023001 16 50 4.8 6.4 0.00 0.00 0.00 55 1009.8
20260505022000 16 50 4.8 8.0 0.00 0.00 0.00 54 1009.9
20260505021505 16 50 4.8 8.0 0.00 0.00 0.00 54 1009.9
20260505020501 16 50 4.8 8.0 0.00 0.00 0.00 54 1009.9
20260505020008 16 50 4.8 8.0 0.00 0.00 0.00 53 1009.9
20260505015501 16 50 4.8 8.0 0.00 0.00 0.00 53 1010.0
20260505015001 16 50 4.8 8.0 0.00 0.00 0.00 53 1010.0
20260505014001 16 50 3.2 8.0 0.00 0.00 0.00 53 1009.9
20260505013501 16 50 3.2 8.0 0.00 0.00 0.00 53 1009.9
20260505013007 17 50 3.2 8.0 0.00 0.00 0.00 53 1009.9
20260505012501 17 50 4.8 8.0 0.00 0.00 0.00 53 1009.8
20260505012001 17 50 3.2 6.4 0.00 0.00 0.00 52 1009.7
20260505011509 17 50 3.2 6.4 0.00 0.00 0.00 52 1009.7
20260505011003 17 50 3.2 6.4 0.00 0.00 0.00 52 1009.6
20260505010502 17 50 3.2 6.4 0.00 0.00 0.00 51 1009.5
20260505010007 17 50 3.2 6.4 0.00 0.00 0.00 51 1009.6
20260505005500 17 50 4.8 8.0 0.00 0.00 0.00 51 1009.6
20260505005001 17 50 4.8 9.7 0.00 0.00 0.00 51 1009.5
20260505004504 17 50 4.8 12.9 0.00 0.00 0.00 50 1009.5
20260505004001 17 50 6.4 12.9 0.00 0.00 0.00 50 1009.4
20260505003501 17 50 6.4 12.9 0.00 0.00 0.00 50 1009.4
20260505002501 18 50 6.4 14.5 0.00 0.00 0.00 49 1009.3
20260505002000 18 50 9.7 19.3 0.00 0.00 0.00 49 1009.3
20260505001503 18 50 9.7 19.3 0.00 0.00 0.00 48 1009.2
20260505001001 18 50 8.0 16.1 0.00 0.00 0.00 48 1009.1
20260505000501 18 50 8.0 16.1 0.00 0.00 0.00 48 1009.2
20260505000007 18 50 8.0 19.3 0.00 0.00 0.00 47 1009.1
20260504235501 18 50 8.0 19.3 0.00 0.00 0.00 47 1009.1
20260504235001 19 50 9.7 24.1 0.00 0.00 0.00 46 1009.0
20260504234502 19 50 12.9 24.1 0.00 0.00 0.00 46 1008.9
20260504234001 19 50 12.9 25.7 0.00 0.00 0.00 46 1008.9
20260504233501 20 50 11.3 25.7 0.00 0.00 0.00 46 1008.9
20260504233003 20 50 11.3 27.4 0.00 0.00 0.00 45 1008.8
20260504232001 20 50 14.5 27.4 0.00 0.00 0.00 44 1008.7
20260504231501 20 50 12.9 27.4 0.00 0.00 0.00 45 1008.7
20260504231001 20 50 12.9 27.4 0.00 0.00 0.00 44 1008.6
20260504230501 20 50 14.5 30.6 0.00 0.00 0.00 45 1008.6
20260504230003 21 50 14.5 30.6 0.00 0.00 0.00 43 1008.5
20260504225501 21 50 9.7 22.5 0.00 0.00 0.00 42 1008.5
20260504224501 21 50 12.9 24.1 0.00 0.00 0.00 42 1008.3
20260504224000 21 184 12.9 24.1 0.00 0.00 0.00 42 1008.4
20260504223001 21 205 11.3 22.5 0.00 0.00 0.00 43 1008.3
20260504222501 21 250 11.3 25.7 0.00 0.00 0.00 42 1008.4
20260504222001 21 220 12.9 25.7 0.00 0.00 0.00 43 1008.5
20260504221501 21 226 12.9 19.3 0.00 0.00 0.00 42 1008.5
20260504221000 21 238 12.9 24.1 0.00 0.00 0.00 42 1008.6
20260504220501 21 257 14.5 24.1 0.00 0.00 0.00 41 1008.6
20260504220001 21 198 14.5 29.0 0.00 0.00 0.00 40 1008.6
20260504215000 21 244 14.5 29.0 0.00 0.00 0.00 41 1008.6
20260504214501 21 245 11.3 27.4 0.00 0.00 0.00 41 1008.7
20260504214001 21 184 12.9 25.7 0.00 0.00 0.00 42 1008.6
20260504213501 21 202 12.9 24.1 0.00 0.00 0.00 41 1008.6
20260504212500 21 230 14.5 25.7 0.00 0.00 0.00 43 1008.8
20260504212001 21 166 14.5 24.1 0.00 0.00 0.00 42 1008.7
20260504211501 21 202 16.1 25.7 0.00 0.00 0.00 41 1008.7
20260504210501 22 238 11.3 25.7 0.00 0.00 0.00 40 1008.7
20260504205500 21 50 16.1 25.7 0.00 0.00 0.00 42 1008.8
20260504205001 21 50 14.5 25.7 0.00 0.00 0.00 41 1008.9
20260504204000 21 50 17.7 29.0 0.00 0.00 0.00 43 1009.0
20260504203500 21 50 16.1 29.0 0.00 0.00 0.00 42 1009.1
20260504203001 21 50 14.5 29.0 0.00 0.00 0.00 44 1009.1
20260504202500 21 50 16.1 33.8 0.00 0.00 0.00 42 1009.1
20260504202000 21 50 17.7 33.8 0.00 0.00 0.00 41 1009.2
20260504201501 21 50 19.3 30.6 0.00 0.00 0.00 40 1009.3
20260504200502 21 50 17.7 29.0 0.00 0.00 0.00 41 1009.4
20260504200004 21 50 16.1 29.0 0.00 0.00 0.00 41 1009.4
20260504195501 21 50 16.1 27.4 0.00 0.00 0.00 43 1009.4
20260504195000 21 50 16.1 30.6 0.00 0.00 0.00 43 1009.4
20260504194507 21 50 19.3 35.4 0.00 0.00 0.00 42 1009.5
20260504194000 21 50 19.3 35.4 0.00 0.00 0.00 42 1009.6
20260504193501 21 50 17.7 30.6 0.00 0.00 0.00 43 1009.6
20260504193001 21 50 19.3 32.2 0.00 0.00 0.00 44 1009.6
20260504192501 21 50 14.5 32.2 0.00 0.00 0.00 42 1009.7
20260504192000 20 50 16.1 41.8 0.00 0.00 0.00 42 1009.7
20260504191501 21 50 17.7 41.8 0.00 0.00 0.00 42 1009.7
20260504191000 21 50 16.1 25.7 0.00 0.00 0.00 43 1009.7
20260504190003 20 50 19.3 33.8 0.00 0.00 0.00 44 1009.8
20260504185501 20 50 20.9 38.6 0.00 0.00 0.00 45 1009.9
20260504185001 21 50 17.7 38.6 0.00 0.00 0.00 42 1010.1
20260504184501 20 50 16.1 30.6 0.00 0.00 0.00 43 1010.0
20260504184000 20 50 17.7 29.0 0.00 0.00 0.00 44 1010.1
20260504183500 20 50 19.3 43.5 0.00 0.00 0.00 44 1010.2
20260504183001 20 205 16.1 43.5 0.00 0.00 0.00 43 1010.3
20260504182500 20 50 12.9 25.7 0.00 0.00 0.00 44 1010.4
20260504182001 20 50 14.5 25.7 0.00 0.00 0.00 44 1010.3
20260504181502 20 50 17.7 29.0 0.00 0.00 0.00 43 1010.4
20260504181001 20 50 17.7 29.0 0.00 0.00 0.00 44 1010.5
20260504180500 20 50 16.1 30.6 0.00 0.00 0.00 44 1010.5
20260504180002 20 50 14.5 30.6 0.00 0.00 0.00 45 1010.5
20260504175501 20 50 16.1 33.8 0.00 0.00 0.00 43 1010.6
20260504174502 20 50 11.3 24.1 0.00 0.00 0.00 45 1010.7
20260504174001 19 50 16.1 25.7 0.00 0.00 0.00 47 1010.9
20260504173500 19 50 17.7 30.6 0.00 0.00 0.00 46 1011.0
20260504172500 19 50 19.3 30.6 0.00 0.00 0.00 45 1011.2